FW3102 Weather Reports


time (UTC)temp
C
wind
direction
speed
KPH
gust
KPH
rain 1hr
cm
rain 24hr
cm
rain mn
cm
humidity
%
barometer
mb
20260503033021 16 169 0.0 0.0 0.00 0.00 0.00 35 1006.1
20260503031512 16 169 0.0 0.0 0.00 0.00 0.00 35 1006.0
20260503030011 17 169 0.0 0.0 0.00 0.00 0.00 33 1006.1
20260503024511 18 169 0.0 0.0 0.00 0.00 0.00 31 1006.1
20260503023010 19 169 0.0 0.0 0.00 0.00 0.00 29 1006.1
20260503021510 20 113 0.0 3.2 0.00 0.00 0.00 28 1006.1
20260503020009 20 254 0.0 4.8 0.00 0.00 0.00 28 1006.2
20260503014508 20 39 0.0 6.4 0.00 0.00 0.00 29 1006.3
20260503013018 20 208 0.0 1.6 0.00 0.00 0.00 30 1006.4
20260503011505 21 207 0.0 1.6 0.00 0.00 0.00 30 1006.6
20260503010003 21 207 0.0 4.8 0.00 0.00 0.00 29 1006.7
20260503004502 21 206 0.0 4.8 0.00 0.00 0.00 28 1007.0
20260503003101 22 203 0.0 4.8 0.00 0.00 0.00 27 1007.0
20260503001603 22 198 1.6 8.0 0.00 0.00 0.00 28 1007.2
20260503000107 21 264 0.0 4.8 0.00 0.00 0.00 29 1007.6
20260502234614 22 217 1.6 9.7 0.00 0.00 0.00 27 1007.9
20260502233108 22 184 3.2 6.4 0.00 0.00 0.00 28 1008.1
20260502231603 22 184 0.0 12.9 0.00 0.00 0.00 28 1008.4
20260502230048 21 12 0.0 4.8 0.00 0.00 0.00 29 1008.9
20260502224545 21 229 0.0 8.0 0.00 0.00 0.00 27 1009.1
20260502223047 21 108 0.0 6.4 0.00 0.00 0.00 29 1009.3
20260502221540 21 217 1.6 8.0 0.00 0.00 0.00 29 1009.6
20260502220039 21 96 0.0 9.7 0.00 0.00 0.00 30 1009.9
20260502214532 21 219 0.0 4.8 0.00 0.00 0.00 30 1010.1
20260502213029 21 219 0.0 6.4 0.00 0.00 0.00 30 1010.5
20260502211540 21 217 0.0 12.9 0.00 0.00 0.00 29 1010.9
20260502210026 20 205 0.0 8.0 0.00 0.00 0.00 30 1011.1
20260502204525 20 207 1.6 8.0 0.00 0.00 0.00 30 1011.2
20260502203022 20 218 0.0 4.8 0.00 0.00 0.00 30 1011.5
20260502201520 20 225 1.6 8.0 0.00 0.00 0.00 31 1012.0
20260502200019 20 218 1.6 6.4 0.00 0.00 0.00 29 1012.3
20260502194516 20 335 1.6 8.0 0.00 0.00 0.00 30 1012.5
20260502193015 20 305 1.6 9.7 0.00 0.00 0.00 30 1012.6
20260502191513 20 192 1.6 4.8 0.00 0.00 0.00 31 1012.6
20260502190010 19 205 1.6 6.4 0.00 0.00 0.00 31 1012.8
20260502184510 18 203 1.6 9.7 0.00 0.00 0.00 33 1013.2
20260502183005 18 148 0.0 4.8 0.00 0.00 0.00 33 1013.4
20260502181600 18 49 1.6 6.4 0.00 0.00 0.00 32 1013.6
20260502163052 17 194 0.0 3.2 0.00 0.00 0.00 39 1015.2
20260502161553 16 126 0.0 1.6 0.00 0.00 0.00 39 1015.2
20260502151531 12 55 0.0 3.2 0.00 0.00 0.00 55 1015.8
20260502123019 1 45 0.0 0.0 0.00 0.00 0.00 88 1015.8
20260502121512 0 45 0.0 0.0 0.00 0.00 0.00 87 1015.8
20260502114510 1 44 0.0 0.0 0.00 0.00 0.00 85 1015.5
20260502113011 1 44 0.0 0.0 0.00 0.00 0.00 84 1015.4
20260502111504 1 45 0.0 0.0 0.00 0.00 0.00 83 1015.4
20260502110002 2 45 0.0 0.0 0.00 0.00 0.00 83 1015.4
20260502104559 2 45 0.0 0.0 0.00 0.00 0.00 83 1015.4
20260502103103 3 45 0.0 0.0 0.00 0.00 0.00 82 1015.2
20260502101556 3 44 0.0 0.0 0.00 0.00 0.00 81 1015.2
20260502100115 3 45 0.0 0.0 0.00 0.00 0.00 81 1015.1
20260502070024 7 41 0.0 0.0 0.00 0.00 0.00 68 1014.4
20260502064519 8 41 0.0 0.0 0.00 0.00 0.00 69 1014.4
20260502063017 8 41 0.0 0.0 0.00 0.00 0.00 69 1014.3
20260502061516 8 41 0.0 1.6 0.00 0.00 0.00 68 1014.2
20260502060013 8 41 0.0 1.6 0.00 0.00 0.00 69 1014.3
20260502054517 8 41 0.0 0.0 0.00 0.00 0.00 68 1014.1
20260502053008 8 41 0.0 0.0 0.00 0.00 0.00 65 1014.0
20260502051512 9 41 0.0 1.6 0.00 0.00 0.00 63 1014.0
20260502050006 10 41 0.0 1.6 0.00 0.00 0.00 61 1013.9
20260502044505 10 70 0.0 0.0 0.00 0.00 0.00 59 1013.7
20260502043002 11 70 0.0 1.6 0.00 0.00 0.00 58 1013.7
20260502041502 11 70 0.0 1.6 0.00 0.00 0.00 56 1013.6
20260502040101 12 75 0.0 1.6 0.00 0.00 0.00 54 1013.4
20260502034600 12 75 0.0 3.2 0.00 0.00 0.00 52 1013.3